Regional Weather Roundup
Issued by NWS

Home | Current Version | Previous Version | Graphics & Text | Print | Product List | Glossary On
Versions: 1 2 3 4 5 6 7 8 9 10 11 12 13 14 15 16 17 18 19 20 21 22 23 24 25 26 27 28 29 30 31 32 33 34 35 36 37 38 39 40 41 42 43 44 45 46 47 48 49 50
000
ASUS43 KIND 200909
RWRIN

WEATHER ROUNDUP FOR INDIANA
NATIONAL WEATHER SERVICE INDIANAPOLIS IN
500 AM EDT SUN APR 20 2014

NOTE: "FAIR" INDICATES FEW OR NO CLOUDS BELOW 12,000 FEET WITH NO
SIGNIFICANT WEATHER AND/OR OBSTRUCTIONS TO VISIBILITY.

* - STATION DOES NOT REPORT WEATHER SUCH AS PRECIPITATION OR FOG.

+ - STATION NOT QUALITY CONTROLLED BY THE NATIONAL WEATHER SERVICE.
    USE DATA WITH CAUTION...ESPECIALLY DEWPOINT AND RELATIVE
    HUMIDITY OBSERVATIONS.

INZ001>003-010>013-019-020-201000-
NORTHWEST INDIANA

CITY           SKY/WX    TMP DP  RH WIND       PRES   REMARKS
GARY /AIRPORT/ CLEAR     48  25  40 SE8       30.24S
LA PORTE +     CLEAR     35  28  75 E5        30.26F WCI  31
MICHIGAN CITY+ CLEAR     43  25  49 SE6       30.25F
MONTICELLO +   CLEAR     43  28  56 CALM      30.25S
RENSSELAER +   CLEAR     39  30  70 E6        30.26R
VALPARAISO     CLEAR     37  26  64 E3        30.26S

$$

LMZ046-743>745-201000-
SOUTHERN LAKE MICHIGAN

STATION/POSITION TIME  TEMP WIND        PRES
                       AIR  DIR/SP/G
                 (UTC) (F)  (DEG/KT/KT) (MB)
MICHIGAN CITY    0900   47  120/ 14/ 18   N/A

$$

INZ004-005-014>016-021>024-201000-
NORTH CENTRAL INDIANA

CITY           SKY/WX    TMP DP  RH WIND       PRES   REMARKS
GOSHEN         CLEAR     42  29  59 SE9       30.27F
LOGANSPORT +   CLEAR     37  30  75 E7        30.27S
PERU/GRISSOM   PTCLDY    41  30  64 E8        30.26F
ROCHESTER +    CLEAR     43  32  65 E7        30.27F
SOUTH BEND     CLEAR     42  28  57 SE9       30.28S
WARSAW +       PTCLDY    37  30  75 SE6       30.28S

$$

INZ006>009-017-018-025>027-201000-
NORTHEAST INDIANA

CITY           SKY/WX    TMP DP  RH WIND       PRES   REMARKS
ANGOLA *+      CLEAR     37  30  75 SE6       30.29S
AUBURN +       CLEAR     36  30  80 E3        30.30F
FORT WAYNE     PTCLDY    36  29  75 E8        30.30S

$$

INZ028-029-035-036-043>045-051>053-201000-
WEST CENTRAL INDIANA

CITY           SKY/WX    TMP DP  RH WIND       PRES   REMARKS
GREENCASTLE +  PTCLDY    45  34  65 E5        30.25S
LAFAYETTE      CLEAR     41  30  65 E8        30.25S
TERRE HAUTE    CLEAR     45  36  70 E6        30.23S

$$

INZ030>032-037>040-046>048-054>057-064-065-201000-
CENTRAL INDIANA

CITY           SKY/WX    TMP DP  RH WIND       PRES   REMARKS
CP ATTERBURY + PTCLDY    41  36  81 NW3       30.26S
INDIANAPOLIS   CLOUDY    45  32  60 NE7       30.25S
-EAGLE CREEK   PTCLDY    45  30  55 NE3       30.25S
KOKOMO *+      PTCLDY    39  28  65 E10       30.27F
MARION +       PTCLDY    39  28  62 E7        30.28F
MT COMFORT *+  PTCLDY    39  34  81 NE6       30.26F
SHELBYVILLE    PTCLDY    46  34  62 E10       30.25F
ZIONSVILLE +   PTCLDY    42  30  62 E5        30.26F

$$

INZ033-034-041-042-049-050-058-059-201000-
EAST CENTRAL INDIANA

CITY           SKY/WX    TMP DP  RH WIND       PRES   REMARKS
MUNCIE         PTCLDY    39  28  64 E3        30.28S

$$

INZ060-061-067>069-081>083-085>088-201000-
SOUTHWEST INDIANA

CITY           SKY/WX    TMP DP  RH WIND       PRES   REMARKS
EVANSVILLE     CLEAR     52  41  66 NE3       30.21R
HUNTINGBURG *+ PTCLDY    50  34  53 E5        30.22S
WASHINGTON +   CLEAR     49  39  68 CALM      30.22S

$$

INZ062-063-066-070>080-084-089>092-201000-
SOUTH CENTRAL AND SOUTHEAST INDIANA

CITY           SKY/WX    TMP DP  RH WIND       PRES   REMARKS
BLOOMINGTON    PTCLDY    43  35  73 CALM      30.23F
SEYMOUR +      PTCLDY    41  28  60 N3        30.25

$$




USA.gov is the U.S. government's official web portal to all federal, state and local government web resources and services.